Probability
0 0 0 0 0 0 0 0 0 0 0 3 6 3 6 19 19 39 42 45 39 29 29 26 32 26 13 10 6 3 3 3 0 0 0 0 0 0 0 0 0 0 0
0 0 0 0 0 0 0 0 0 0 0 3 3 3 6 10 16 29 35 39 39 35 26 19 23 26 19 6 6 3 3 3 0 0 0 0 0 0 0 0 0 0 0
0 0 0 0 0 0 0 0 0 0 3 3 6 10 16 16 16 23 35 42 39 39 16 19 19 19 23 16 6 3 3 0 0 0 0 0 0 0 0 0 0 0 0
0 0 0 0 0 0 0 0 0 0 0 3 10 3 10 10 10 13 26 39 39 35 26 16 23 19 16 10 10 10 13 0 0 0 0 0 0 0 0 0 0 0 0
0 0 0 0 0 0 0 0 0 0 0 3 6 6 6 10 13 19 19 32 35 42 35 26 26 23 13 13 19 10 6 3 0 0 0 0 0 0 0 0 0 0 0
0 0 0 0 0 0 0 0 3 0 0 3 3 3 3 6 13 13 16 23 35 35 23 23 13 16 13 16 13 13 10 6 0 0 0 0 0 0 0 0 0 0 0
0 0 0 0 0 0 0 0 0 0 0 0 0 3 3 3 6 13 19 26 29 26 19 16 16 16 16 16 16 10 6 3 0 0 0 0 0 0 0 0 0 0 0
0 0 0 0 0 0 0 0 0 0 0 0 0 0 3 6 10 10 10 16 19 23 19 13 13 16 6 13 13 6 6 3 3 0 0 0 0 0 0 0 0 0 0
0 0 0 0 0 0 0 0 0 0 0 0 0 0 3 3 6 6 6 13 16 19 16 16 13 10 3 6 6 10 3 6 0 0 0 0 0 0 0 0 0 0 0
0 0 0 0 0 0 0 0 0 0 0 0 0 0 0 3 3 10 10 10 3 3 6 6 10 10 6 6 6 3 3 3 3 3 3 3 0 0 0 0 0 0 0
0 0 0 0 0 0 0 0 0 0 0 0 0 0 0 3 3 6 6 3 0 3 0 0 0 3 3 0 3 3 3 3 3 3 0 0 0 0 0 0 0 0 0
0 0 0 0 0 0 0 0 0 0 0 0 0 0 0 0 0 0 0 0 0 3 3 0 0 0 0 0 0 0 0 3 3 3 3 3 0 0 0 0 0 0 0
0 0 0 0 0 0 0 0 0 0 0 0 0 0 0 0 0 0 0 0 0 0 0 0 0 0 0 0 0 0 0 0 0 0 3 3 3 0 0 0 0 0 0
0 0 0 0 0 0 0 0 0 0 0 0 0 0 0 0 0 0 0 0 0 0 0 0 0 0 0 0 0 0 0 0 0 0 0 0 0 0 0 0 0 0 0
0 0 0 0 0 0 0 0 0 0 0 0 0 0 0 0 0 0 0 0 0 0 0 0 0 0 0 0 0 0 0 0 0 0 0 0 0 0 0 0 0 0 0
0 0 0 0 0 0 0 0 0 0 0 0 0 0 0 0 0 0 0 0 0 0 0 0 0 0 0 0 0 0 0 0 0 0 0 0 0 0 0 0 0 0 0
0 0 0 0 0 0 0 0 0 0 0 0 0 0 0 0 0 0 0 0 0 0 0 0 0 0 0 0 0 0 0 0 0 0 0 0 0 0 0 0 0 0 0
0 0 0 0 0 0 0 0 0 0 0 0 0 0 0 0 0 0 0 0 0 0 0 0 0 0 0 0 0 0 0 0 0 0 0 0 0 0 0 0 0 0 0
0 0 0 0 0 0 0 0 0 0 0 0 0 0 0 0 0 0 0 0 0 0 0 0 0 0 0 0 0 0 0 0 0 0 0 0 0 0 0 0 0 0 0
0 0 0 0 0 0 0 0 0 0 0 0 0 0 0 0 0 0 0 0 0 0 0 0 0 0 0 0 0 0 0 0 0 0 0 0 0 0 0 0 0 0 0
0 0 0 0 0 0 0 0 0 0 0 0 0 0 0 0 0 0 0 0 0 0 0 0 0 0 0 0 0 0 0 0 0 0 0 0 0 0 0 0 0 0 0
0 0 0 0 0 0 0 0 0 0 0 0 0 0 0 0 0 0 0 0 0 0 0 0 0 0 0 0 0 0 0 0 0 0 0 0 0 0 0 0 0 0 0
0 0 0 0 0 0 0 0 0 0 0 0 0 0 0 0 0 0 0 0 0 0 0 0 0 0 0 0 0 0 0 0 0 0 0 0 0 0 0 0 0 0 0
0 0 0 0 0 0 0 0 0 0 0 0 0 0 0 0 0 0 0 0 0 0 0 0 0 0 0 0 0 0 0 0 0 0 0 0 0 0 0 0 0 0 0
0 0 0 0 0 0 0 0 0 0 0 0 0 0 0 0 0 0 0 0 0 0 0 0 0 0 0 0 0 0 0 0 0 0 0 0 0 0 0 0 0 0 0
0 0 0 0 0 0 0 0 0 0 0 0 0 0 0 0 0 0 0 0 0 0 0 0 0 0 0 0 0 0 0 0 0 0 0 0 0 0 0 0 0 0 0
Height
5848 5845 5843 5841 5839 5837 5835 5834 5833 5832 5833 5833 5834 5835 5836 5838 5840 5842 5844 5846 5848 5850 5853 5855 5857 5859 5861 5864 5866 5869 5872 5874 5876 5879 5880 5882 5884 5885 5887 5888 5890 5892 5894
5840 5837 5834 5832 5829 5827 5825 5824 5822 5822 5822 5822 5822 5823 5824 5826 5828 5831 5833 5836 5839 5841 5844 5847 5849 5851 5853 5856 5858 5861 5864 5867 5869 5872 5874 5876 5878 5880 5881 5883 5885 5887 5889
5833 5830 5827 5824 5821 5818 5816 5814 5813 5812 5812 5812 5812 5812 5813 5815 5817 5820 5822 5826 5829 5832 5835 5838 5841 5844 5846 5848 5851 5853 5856 5859 5862 5865 5867 5869 5871 5873 5876 5878 5879 5881 5883
5827 5823 5820 5817 5814 5811 5808 5806 5804 5803 5802 5801 5801 5802 5803 5804 5806 5809 5812 5815 5818 5822 5826 5829 5832 5835 5838 5841 5843 5846 5849 5852 5854 5857 5859 5862 5864 5867 5870 5872 5874 5875 5877
5821 5818 5815 5811 5808 5804 5801 5799 5797 5795 5793 5793 5792 5792 5793 5794 5796 5798 5801 5805 5808 5812 5815 5819 5823 5826 5829 5832 5835 5838 5841 5844 5847 5849 5852 5854 5857 5859 5862 5865 5867 5869 5871
5817 5814 5810 5807 5803 5800 5796 5794 5791 5789 5786 5785 5784 5784 5784 5785 5786 5789 5791 5795 5798 5802 5806 5810 5813 5817 5820 5823 5827 5829 5833 5836 5839 5841 5844 5847 5849 5852 5854 5857 5859 5862 5864
5815 5811 5808 5804 5800 5797 5793 5790 5787 5784 5782 5780 5778 5777 5777 5777 5778 5780 5783 5786 5790 5793 5797 5801 5805 5808 5811 5814 5817 5821 5824 5828 5831 5833 5836 5839 5841 5844 5846 5849 5852 5854 5856
5814 5810 5806 5802 5799 5795 5791 5788 5785 5782 5779 5776 5774 5773 5772 5772 5773 5773 5776 5779 5782 5785 5789 5793 5796 5800 5802 5806 5809 5812 5815 5819 5822 5826 5828 5831 5833 5836 5838 5841 5843 5846 5849
5814 5810 5807 5803 5799 5795 5791 5788 5784 5781 5778 5775 5773 5771 5770 5769 5769 5769 5770 5773 5775 5778 5781 5785 5788 5791 5794 5797 5801 5803 5807 5811 5814 5817 5820 5822 5825 5827 5830 5833 5835 5838 5840
5815 5812 5808 5804 5800 5796 5792 5789 5785 5781 5778 5775 5772 5770 5769 5768 5767 5767 5768 5769 5771 5773 5775 5778 5781 5784 5786 5789 5793 5796 5800 5803 5806 5809 5812 5814 5817 5819 5821 5824 5827 5829 5832
5818 5814 5810 5807 5803 5798 5795 5791 5787 5783 5779 5776 5774 5772 5770 5769 5768 5767 5767 5767 5768 5769 5771 5773 5775 5777 5780 5783 5786 5790 5792 5795 5798 5801 5803 5806 5808 5811 5813 5815 5818 5820 5822
5820 5816 5813 5809 5805 5801 5798 5794 5790 5786 5782 5779 5776 5774 5772 5770 5769 5768 5767 5767 5767 5767 5768 5769 5770 5772 5774 5777 5780 5783 5785 5788 5790 5793 5795 5798 5800 5802 5805 5807 5809 5811 5813
5823 5819 5816 5812 5808 5804 5800 5797 5793 5789 5786 5782 5779 5777 5774 5772 5770 5769 5768 5767 5766 5765 5766 5766 5767 5768 5769 5771 5773 5776 5778 5780 5782 5784 5787 5790 5792 5794 5796 5798 5800 5803 5805
5827 5823 5819 5815 5811 5807 5803 5799 5796 5792 5789 5786 5783 5780 5777 5775 5772 5771 5769 5767 5766 5765 5764 5764 5764 5764 5765 5766 5768 5769 5771 5773 5775 5777 5779 5781 5784 5786 5788 5790 5792 5794 5797
5830 5827 5823 5819 5815 5811 5807 5803 5800 5796 5793 5790 5786 5783 5780 5777 5775 5773 5770 5768 5766 5765 5763 5762 5762 5762 5762 5762 5763 5764 5765 5767 5768 5770 5772 5774 5776 5778 5780 5782 5785 5787 5789
5834 5831 5827 5823 5819 5815 5811 5808 5804 5800 5797 5794 5790 5787 5784 5781 5778 5775 5772 5770 5767 5765 5763 5761 5760 5759 5759 5759 5759 5760 5760 5761 5762 5764 5765 5767 5769 5771 5772 5775 5777 5780 5782
5838 5834 5831 5827 5824 5820 5816 5812 5808 5805 5801 5798 5794 5791 5787 5784 5781 5777 5774 5771 5768 5765 5763 5761 5759 5757 5756 5755 5755 5755 5755 5756 5757 5758 5759 5761 5762 5764 5766 5768 5771 5773 5776
5841 5838 5835 5831 5827 5824 5820 5816 5812 5809 5805 5801 5798 5794 5790 5787 5783 5780 5776 5772 5769 5766 5763 5760 5758 5756 5754 5753 5752 5751 5751 5752 5752 5753 5754 5756 5757 5759 5761 5764 5766 5769 5771
5844 5841 5838 5835 5831 5827 5824 5820 5816 5812 5809 5805 5801 5797 5793 5789 5786 5782 5778 5774 5770 5767 5763 5760 5757 5755 5753 5751 5750 5749 5748 5748 5748 5749 5750 5752 5753 5755 5757 5760 5762 5765 5767
5847 5844 5841 5838 5834 5831 5827 5824 5820 5816 5812 5808 5804 5800 5796 5792 5788 5784 5780 5776 5772 5768 5764 5760 5757 5754 5752 5750 5749 5747 5746 5746 5746 5746 5747 5749 5750 5752 5754 5757 5759 5761 5764
5849 5846 5843 5840 5837 5834 5831 5827 5823 5820 5816 5812 5808 5804 5799 5795 5791 5787 5783 5778 5774 5770 5766 5762 5759 5756 5753 5751 5749 5747 5746 5745 5745 5745 5746 5747 5749 5751 5753 5755 5757 5760 5762
5851 5848 5846 5843 5840 5837 5834 5830 5827 5823 5819 5815 5811 5807 5803 5799 5795 5790 5786 5782 5777 5773 5769 5766 5762 5759 5756 5754 5751 5749 5748 5747 5747 5747 5747 5747 5749 5750 5753 5755 5757 5759 5761
5853 5850 5848 5845 5842 5839 5836 5833 5830 5826 5823 5819 5815 5811 5807 5803 5799 5794 5790 5786 5782 5778 5774 5770 5767 5764 5761 5758 5755 5753 5751 5750 5749 5749 5749 5750 5751 5752 5754 5756 5758 5760 5762
5854 5852 5849 5847 5844 5841 5838 5835 5832 5829 5826 5822 5819 5815 5811 5807 5803 5799 5795 5791 5787 5783 5779 5775 5772 5769 5766 5763 5760 5758 5756 5755 5754 5753 5753 5754 5754 5756 5757 5759 5761 5762 5764
5855 5853 5850 5848 5845 5843 5840 5837 5835 5832 5829 5826 5822 5819 5815 5812 5808 5804 5800 5796 5792 5788 5785 5781 5778 5774 5772 5769 5766 5764 5762 5761 5760 5759 5759 5759 5759 5760 5761 5762 5763 5765 5766
5855 5853 5851 5848 5846 5844 5841 5839 5836 5833 5831 5828 5825 5822 5819 5815 5812 5808 5805 5801 5797 5794 5790 5787 5784 5781 5778 5775 5773 5770 5769 5767 5766 5765 5764 5764 5764 5764 5765 5765 5766 5767 5768
Wind_Speed
34 35 35 35 36 37 38 39 41 43 43 44 45 46 45 45 45 44 43 42 40 39 38 35 34 34 33 33 33 32 30 29 28 26 24 23 23 23 23 23 22 21 20
34 34 34 34 34 35 36 37 38 39 40 41 43 44 45 45 45 44 44 44 42 39 38 37 34 34 34 32 32 32 32 31 30 28 26 26 25 25 25 24 24 24 23
31 31 31 31 31 32 33 33 34 35 36 37 38 39 41 42 43 43 43 43 43 40 38 36 35 34 32 31 30 30 30 31 31 29 28 28 27 27 26 25 25 26 26
26 26 26 26 27 28 28 29 29 31 32 33 34 35 36 38 39 40 41 41 41 40 40 37 35 34 34 32 30 29 29 30 31 29 29 29 29 28 26 26 26 26 26
22 22 23 23 23 23 24 25 25 26 26 27 28 29 31 34 35 37 38 38 37 37 37 36 35 34 34 33 31 30 29 30 29 29 29 28 28 28 28 28 27 27 28
19 19 20 19 19 19 19 19 19 20 21 22 23 25 26 28 30 33 34 34 34 34 33 32 33 32 32 32 31 29 29 29 29 29 30 29 28 28 29 28 28 28 28
17 17 17 17 17 17 17 16 15 16 16 17 18 19 21 22 24 26 29 30 31 31 31 31 31 31 31 31 31 30 30 30 30 29 29 30 30 31 31 31 31 30 30
15 15 16 16 16 15 15 14 14 14 14 13 13 14 14 16 18 20 22 25 27 28 28 28 29 30 30 30 31 32 30 29 29 30 30 31 32 32 33 32 32 31 32
15 16 16 17 16 16 14 14 14 14 13 12 11 10 9 10 12 14 17 19 21 23 25 27 28 29 30 31 31 30 30 30 30 31 32 32 31 32 32 33 33 33 33
17 17 17 18 18 18 17 16 16 15 14 13 12 9 8 7 6 7 9 13 16 19 21 24 26 27 29 30 31 30 30 30 30 32 33 32 32 32 33 33 34 34 34
17 18 17 18 19 20 19 19 18 17 16 15 13 11 9 8 7 6 5 7 10 12 15 19 22 24 25 27 28 29 30 30 31 32 32 32 31 32 33 33 33 34 34
18 18 18 18 19 19 20 19 19 19 18 18 16 14 12 9 8 7 6 6 7 9 11 14 17 21 24 25 27 28 29 29 29 29 30 30 31 32 32 32 32 32 32
19 19 20 20 20 20 19 19 19 19 18 17 17 16 14 13 11 10 8 7 6 6 8 10 12 15 18 22 25 26 27 27 27 27 28 29 30 30 30 30 30 30 30
19 20 21 21 21 21 20 20 20 20 20 20 19 18 16 14 12 11 11 9 8 7 6 7 8 11 13 16 18 21 23 24 26 26 27 27 28 29 28 28 28 29 29
20 21 21 22 23 23 22 21 21 21 20 20 20 20 19 17 15 14 13 12 10 9 7 7 7 8 10 12 14 16 18 20 22 23 25 25 26 26 27 27 27 27 28
19 20 21 22 22 22 23 22 22 22 21 21 21 20 19 18 17 17 15 14 12 11 9 8 8 8 9 10 11 13 15 16 18 20 21 22 23 24 24 24 25 24 24
19 20 21 21 22 22 22 22 22 22 22 22 21 21 20 19 18 18 18 17 16 14 12 11 10 9 8 8 9 11 13 14 15 16 18 19 20 21 21 20 20 20 20
18 18 19 20 21 21 22 22 22 22 22 22 22 21 21 20 20 19 19 19 18 16 14 13 11 10 9 7 7 8 10 11 12 14 14 16 16 16 17 17 16 17 17
17 17 18 19 20 21 21 22 22 22 22 22 22 22 22 22 21 20 20 20 19 18 16 15 13 11 10 8 7 6 6 8 9 10 10 10 11 12 12 13 14 14 14
16 16 17 17 18 19 20 21 22 22 22 22 23 23 23 22 22 22 22 22 21 19 18 17 15 13 11 9 7 7 5 4 3 4 5 6 7 7 9 10 11 11 12
15 16 16 16 17 18 19 20 21 22 22 22 23 24 24 24 23 23 23 23 22 21 20 19 17 16 13 11 10 9 7 5 4 2 1 4 5 6 7 7 8 8 8
15 15 15 15 16 17 18 18 19 21 22 22 23 24 24 24 24 24 24 24 23 23 22 20 19 18 17 15 13 12 10 9 8 7 6 5 4 5 7 7 7 6 6
14 14 14 14 15 15 16 17 18 19 21 21 22 23 24 24 25 24 25 24 24 24 23 22 21 20 19 18 17 16 14 12 11 11 10 10 9 8 8 8 7 6 6
13 13 13 13 14 14 15 15 16 18 19 20 21 22 23 23 24 24 25 25 25 24 24 23 22 22 22 21 20 19 18 16 15 14 13 13 12 11 10 9 8 7 6
12 12 12 13 13 13 13 14 14 15 16 18 19 20 21 22 23 24 24 24 25 24 24 24 23 23 22 22 22 21 20 20 18 16 15 15 13 12 11 10 9 8 8
12 12 12 12 12 12 12 12 12 13 13 15 16 17 18 20 21 22 23 23 24 24 24 24 23 23 23 22 22 21 20 20 19 18 17 16 14 13 12 11 10 10 9
Wind_Direction
291 290 288 286 284 282 279 277 275 273 271 270 269 268 268 268 267 265 264 264 266 266 265 264 263 260 258 256 252 247 245 245 247 248 247 245 244 245 247 248 248 248 248
293 292 291 290 287 284 282 279 277 274 273 272 271 269 268 267 266 264 262 263 263 263 263 264 264 262 260 259 257 251 246 246 246 245 245 243 244 245 246 247 248 249 250
296 294 293 292 291 289 286 282 278 276 274 272 270 268 266 265 263 262 261 261 262 261 262 262 263 260 258 257 256 252 248 246 245 243 243 243 243 243 244 247 249 250 250
302 300 299 298 297 295 292 288 284 280 276 273 270 268 266 265 262 260 259 258 260 259 259 260 261 259 256 255 252 251 250 249 247 244 243 244 244 242 243 245 248 250 251
310 308 307 305 304 302 298 295 291 286 280 276 272 270 266 264 261 259 257 256 256 256 256 257 258 258 256 254 251 249 249 248 247 248 246 244 242 240 242 244 246 249 251
320 320 319 317 313 312 310 307 302 296 288 281 277 273 269 265 261 257 254 253 253 253 252 252 252 252 251 251 247 247 247 249 246 247 247 246 244 242 241 243 246 247 250
334 334 334 331 328 325 325 324 318 311 305 296 287 280 273 268 263 257 252 250 249 248 247 247 246 246 246 245 245 246 245 246 246 245 246 245 245 245 245 245 246 246 248
351 353 353 350 347 344 340 337 337 331 325 318 307 297 286 275 264 256 251 249 246 243 243 243 243 243 244 245 246 244 243 244 245 243 244 245 246 245 248 248 247 248 249
8 10 9 9 10 7 3 360 360 356 350 341 333 323 311 295 272 259 250 246 241 239 239 240 241 242 242 242 241 242 241 241 243 243 242 244 244 244 247 249 249 250 250
21 22 23 25 25 24 22 19 13 10 6 5 3 355 343 330 304 273 256 245 240 240 239 239 240 241 240 241 242 243 241 242 244 243 243 244 246 248 248 250 251 252 253
25 26 28 29 30 31 29 26 24 21 19 19 18 11 4 353 344 322 291 260 250 249 247 244 241 241 241 242 243 243 242 244 246 246 246 248 249 250 250 252 253 254 255
30 31 30 29 27 27 27 25 25 25 25 28 26 24 19 10 1 352 333 306 282 267 261 256 250 246 243 243 244 245 244 246 246 247 247 249 251 252 252 253 254 255 257
34 34 33 31 28 26 26 26 27 28 29 28 29 29 26 25 21 15 2 343 323 299 280 271 263 256 251 249 247 246 248 248 249 249 248 249 251 252 253 253 253 255 256
36 35 34 32 32 31 32 32 32 33 34 34 33 32 31 29 25 20 14 7 356 339 318 294 279 269 261 255 253 250 250 251 251 252 251 251 252 253 254 254 254 255 255
37 35 34 35 36 37 38 37 35 35 34 33 33 33 34 34 33 29 24 18 12 3 347 328 308 289 277 266 260 258 256 254 252 252 253 253 252 252 253 253 254 253 253
33 33 34 36 37 38 38 38 37 37 36 35 34 34 34 34 33 29 26 22 15 8 357 343 327 310 297 282 270 263 260 259 256 254 253 254 253 252 253 253 252 253 253
33 34 34 35 35 35 36 36 35 34 34 33 32 32 31 30 28 26 23 21 17 12 5 357 347 335 318 301 284 273 267 262 261 257 254 254 253 251 251 250 249 249 248
30 30 31 32 32 33 33 33 33 32 32 31 31 30 29 27 25 24 22 19 16 14 11 4 357 350 340 327 307 290 276 267 264 259 256 252 251 248 244 243 244 243 242
27 27 28 29 29 30 30 29 30 30 30 29 29 28 27 26 25 24 22 20 18 17 14 11 7 1 354 347 336 323 301 280 267 256 249 245 246 241 236 236 238 238 236
24 24 25 25 26 27 27 28 28 29 29 29 28 27 26 25 25 24 22 20 20 20 19 18 17 15 11 6 359 353 341 317 288 256 239 229 223 217 215 218 220 222 221
20 21 22 23 24 24 26 27 28 29 29 29 28 28 27 27 26 25 24 24 25 25 26 27 28 29 29 26 25 26 29 29 38 50 153 194 199 197 191 192 195 200 203
17 19 20 21 22 23 25 26 27 28 28 29 29 29 29 29 28 28 28 29 31 32 33 35 37 38 40 40 41 42 50 55 64 72 85 104 130 147 152 156 160 160 166
14 16 17 19 20 21 22 24 26 26 27 28 29 29 30 30 30 31 32 33 35 37 39 41 43 44 46 48 48 50 58 62 70 75 84 94 106 117 126 127 129 131 128
9 11 12 13 15 16 18 20 22 24 26 27 28 29 30 31 33 34 35 36 38 40 42 44 47 49 51 52 54 58 62 68 71 73 80 88 95 101 108 112 116 119 118
359 2 5 8 9 10 11 14 17 20 23 25 28 29 31 32 34 36 37 39 40 42 44 47 49 52 54 55 57 61 65 67 69 73 77 83 88 92 96 101 109 112 112
348 352 356 359 2 4 5 7 10 14 17 21 24 27 29 32 34 36 38 40 42 44 46 48 51 53 55 57 59 61 64 66 68 70 74 79 83 86 90 92 95 100 105